Home > Time Zones > World Clock > Weather > Norway > Oslo > Past weeks

Flag for Norway Weather past 2 weeks in Oslo, Norway

Now
73 °F

Passing clouds.


Feels Like: 77 °F
Forecast: 56 / 74 °F
Wind: 5 mph from South

Location: Oslo-Blindern

Current Time: Jul 29, 2014 at 9:30:58 PM

Latest Report: Jul 29, 2014 at 8:00 PM


Visibility: 47 mi

Pressure: 29.73 "Hg

Humidity: 59%

Dew point: 58 °F

Location of OsloLocation

Historic Weather in Oslo — Graph

°F

Oslo temperature yesterday

Maximum temperature yesterday: 82 °F (at 4:00 PM)
Minimum temperature yesterday: 60 °F (at 3:00 AM)
Average temperature yesterday: 70 °F

Past Weeks' High & Low Weather Summary

 TemperatureHumidityPressure
High90 °F (Jul 24, 2:00 PM)97% (Jul 16, 2:00 AM)30.31 "Hg (Jul 16, 2:00 AM)
Low52 °F (Jul 18, 5:00 AM)23% (Jul 23, 6:00 PM)29.70 "Hg (Jul 14, 8:00 PM)
Average71 °F64%30.04 "Hg
* Reported Jul 14 8:00 PM — Jul 29 8:00 PM, Oslo, Weather by CustomWeather, © 2014

Note: Actual official high and low records may vary slightly from our data, if they occured in-between our weather recording intervals... More about our weather records

Advertising

Oslo weather history for previous 24 hours

 ConditionsComfort  
Time TempWeatherWind HumidityBarometerVisibility
8:00 PM
Jul 29
73 °FPassing clouds.5 mph59%29.73 "Hg47 mi
7:00 PM76 °FMild.5 mph49%29.73 "HgN/A
6:00 PM77 °FWarm.6 mph55%29.74 "HgN/A
5:00 PM80 °FPassing clouds.6 mph40%29.75 "Hg47 mi
4:00 PM82 °FWarm.6 mph43%29.77 "HgN/A
3:00 PM82 °FWarm.3 mph49%29.78 "HgN/A
2:00 PM81 °FPassing clouds.3 mph54%29.80 "Hg34 mi
1:00 PM80 °FWarm.2 mph55%29.81 "HgN/A
12:00 PM78 °FWarm.2 mph59%29.83 "HgN/A
11:00 AM77 °FOvercast.3 mph66%29.84 "Hg34 mi
10:00 AM76 °FMild.1 mph63%29.84 "HgN/A
9:00 AM71 °FMild.1 mph69%29.85 "HgN/A
8:00 AM70 °FPassing clouds.2 mph70%29.86 "Hg37 mi
7:00 AM67 °FMild.2 mph75%29.85 "HgN/A
6:00 AM65 °FMild.3 mph78%29.86 "HgN/A
5:00 AM64 °FScattered clouds.3 mph78%29.87 "Hg47 mi
4:00 AM65 °FMild.3 mph76%29.88 "HgN/A
3:00 AM65 °FMild.3 mph74%29.88 "HgN/A
2:00 AM67 °FPassing clouds.2 mph76%29.88 "Hg47 mi
1:00 AM68 °FMild.2 mph76%29.87 "HgN/A
12:00 AM70 °FMild.1 mph73%29.88 "HgN/A
11:00 PM
Jul 28
71 °FSprinkles. Passing clouds.1 mph77%29.88 "Hg43 mi
10:00 PM72 °FMild.2 mph70%29.87 "HgN/A
9:00 PM73 °FMild.3 mph63%29.87 "HgN/A
Weather by CustomWeather, © 2014

See weather overviewHow to use our weather pages